#datetime,building,power
2022-11-06T00:00:00,mcc,62.62
2022-11-06T00:01:00,mcc,62.69
2022-11-06T00:02:00,mcc,63.85
2022-11-06T00:03:00,mcc,82.28
2022-11-06T00:04:00,mcc,63.00
2022-11-06T00:05:00,mcc,64.65
2022-11-06T00:06:00,mcc,64.56
2022-11-06T00:07:00,mcc,66.61
2022-11-06T00:08:00,mcc,62.71
2022-11-06T00:09:00,mcc,59.70
2022-11-06T00:10:00,mcc,56.59
2022-11-06T00:11:00,mcc,58.44
2022-11-06T00:12:00,mcc,54.21
2022-11-06T00:13:00,mcc,55.75
2022-11-06T00:14:00,mcc,56.40
2022-11-06T00:15:00,mcc,58.42
2022-11-06T00:16:00,mcc,58.00
2022-11-06T00:17:00,mcc,58.75
2022-11-06T00:18:00,mcc,60.64
2022-11-06T00:19:00,mcc,63.20
2022-11-06T00:20:00,mcc,60.58
2022-11-06T00:21:00,mcc,59.66
2022-11-06T00:22:00,mcc,67.78
2022-11-06T00:23:00,mcc,52.71
2022-11-06T00:24:00,mcc,49.80
2022-11-06T00:25:00,mcc,47.81
2022-11-06T00:26:00,mcc,47.23
2022-11-06T00:27:00,mcc,48.62
2022-11-06T00:28:00,mcc,46.33
2022-11-06T00:29:00,mcc,44.89
2022-11-06T00:30:00,mcc,43.02
2022-11-06T00:31:00,mcc,42.26
2022-11-06T00:32:00,mcc,43.09
2022-11-06T00:33:00,mcc,40.72
2022-11-06T00:34:00,mcc,39.69
2022-11-06T00:35:00,mcc,39.66
2022-11-06T00:36:00,mcc,43.06
2022-11-06T00:37:00,mcc,41.64
2022-11-06T00:38:00,mcc,41.94
2022-11-06T00:39:00,mcc,42.00
2022-11-06T00:40:00,mcc,43.89
2022-11-06T00:41:00,mcc,41.65
2022-11-06T00:42:00,mcc,39.84
2022-11-06T00:43:00,mcc,47.22
2022-11-06T00:44:00,mcc,40.52
2022-11-06T00:45:00,mcc,41.01
2022-11-06T00:46:00,mcc,40.66
2022-11-06T00:47:00,mcc,40.25
2022-11-06T00:48:00,mcc,41.10
2022-11-06T00:49:00,mcc,38.06
2022-11-06T00:50:00,mcc,41.98
2022-11-06T00:51:00,mcc,41.56
2022-11-06T00:52:00,mcc,44.21
2022-11-06T00:53:00,mcc,42.51
2022-11-06T00:54:00,mcc,44.60
2022-11-06T00:55:00,mcc,44.34
2022-11-06T00:56:00,mcc,45.25
2022-11-06T00:57:00,mcc,46.56
2022-11-06T00:58:00,mcc,46.95
2022-11-06T00:59:00,mcc,44.51
2022-11-06T01:00:00,mcc,48.29
2022-11-06T01:01:00,mcc,48.55
2022-11-06T01:02:00,mcc,45.26
2022-11-06T01:03:00,mcc,45.51
2022-11-06T01:04:00,mcc,44.69
2022-11-06T01:05:00,mcc,45.04
2022-11-06T01:06:00,mcc,42.36
2022-11-06T01:07:00,mcc,42.24
2022-11-06T01:08:00,mcc,43.89
2022-11-06T01:09:00,mcc,46.06
2022-11-06T01:10:00,mcc,44.67
2022-11-06T01:11:00,mcc,43.15
2022-11-06T01:12:00,mcc,42.66
2022-11-06T01:13:00,mcc,46.08
2022-11-06T01:14:00,mcc,44.95
2022-11-06T01:15:00,mcc,44.93
2022-11-06T01:16:00,mcc,44.68
2022-11-06T01:17:00,mcc,46.01
2022-11-06T01:18:00,mcc,44.48
2022-11-06T01:19:00,mcc,43.55
2022-11-06T01:20:00,mcc,43.15
2022-11-06T01:21:00,mcc,44.09
2022-11-06T01:22:00,mcc,43.16
2022-11-06T01:23:00,mcc,43.65
2022-11-06T01:24:00,mcc,41.82
2022-11-06T01:25:00,mcc,51.06
2022-11-06T01:26:00,mcc,43.72
2022-11-06T01:27:00,mcc,43.15
2022-11-06T01:28:00,mcc,43.92
2022-11-06T01:29:00,mcc,47.52
2022-11-06T01:30:00,mcc,46.33
2022-11-06T01:31:00,mcc,46.70
2022-11-06T01:32:00,mcc,45.20
2022-11-06T01:33:00,mcc,47.77
2022-11-06T01:34:00,mcc,43.32
2022-11-06T01:35:00,mcc,43.06
2022-11-06T01:36:00,mcc,44.62
2022-11-06T01:37:00,mcc,44.11
2022-11-06T01:38:00,mcc,43.71
2022-11-06T01:39:00,mcc,44.58
2022-11-06T01:40:00,mcc,42.49
2022-11-06T01:41:00,mcc,40.26
2022-11-06T01:42:00,mcc,40.11
2022-11-06T01:43:00,mcc,38.18
2022-11-06T01:44:00,mcc,39.13
2022-11-06T01:45:00,mcc,40.22
2022-11-06T01:46:00,mcc,43.77
2022-11-06T01:47:00,mcc,43.79
2022-11-06T01:48:00,mcc,45.48
2022-11-06T01:49:00,mcc,45.23
2022-11-06T01:50:00,mcc,47.51
2022-11-06T01:51:00,mcc,45.96
2022-11-06T01:52:00,mcc,46.29
2022-11-06T01:53:00,mcc,49.95
2022-11-06T01:54:00,mcc,50.44
2022-11-06T01:55:00,mcc,51.23
2022-11-06T01:56:00,mcc,52.78
2022-11-06T01:57:00,mcc,50.50
2022-11-06T01:58:00,mcc,50.99
2022-11-06T01:59:00,mcc,52.44
2022-11-06T02:00:00,mcc,54.52
2022-11-06T02:01:00,mcc,52.01
2022-11-06T02:02:00,mcc,52.77
2022-11-06T02:03:00,mcc,52.67
2022-11-06T02:04:00,mcc,55.08
2022-11-06T02:05:00,mcc,53.72
2022-11-06T02:06:00,mcc,52.46
2022-11-06T02:07:00,mcc,51.45
2022-11-06T02:08:00,mcc,51.97
2022-11-06T02:09:00,mcc,58.79
2022-11-06T02:10:00,mcc,57.79
2022-11-06T02:11:00,mcc,57.84
2022-11-06T02:12:00,mcc,61.27
2022-11-06T02:13:00,mcc,51.70
2022-11-06T02:14:00,mcc,50.03
2022-11-06T02:15:00,mcc,53.20
2022-11-06T02:16:00,mcc,53.96
2022-11-06T02:17:00,mcc,50.39
2022-11-06T02:18:00,mcc,50.99
2022-11-06T02:19:00,mcc,52.49
2022-11-06T02:20:00,mcc,53.47
2022-11-06T02:21:00,mcc,51.15
2022-11-06T02:22:00,mcc,51.66
2022-11-06T02:23:00,mcc,51.51
2022-11-06T02:24:00,mcc,49.76
2022-11-06T02:25:00,mcc,49.63
2022-11-06T02:26:00,mcc,48.50
2022-11-06T02:27:00,mcc,47.15
2022-11-06T02:28:00,mcc,47.68
2022-11-06T02:29:00,mcc,49.17
2022-11-06T02:30:00,mcc,46.95
2022-11-06T02:31:00,mcc,46.33
2022-11-06T02:32:00,mcc,51.07
2022-11-06T02:33:00,mcc,51.95
2022-11-06T02:34:00,mcc,49.74
2022-11-06T02:35:00,mcc,48.65
2022-11-06T02:36:00,mcc,49.23
2022-11-06T02:37:00,mcc,50.61
2022-11-06T02:38:00,mcc,48.21
2022-11-06T02:39:00,mcc,49.65
2022-11-06T02:40:00,mcc,52.01
2022-11-06T02:41:00,mcc,53.28
2022-11-06T02:42:00,mcc,50.25
2022-11-06T02:43:00,mcc,49.06
2022-11-06T02:44:00,mcc,46.89
2022-11-06T02:45:00,mcc,48.94
2022-11-06T02:46:00,mcc,46.25
2022-11-06T02:47:00,mcc,47.73
2022-11-06T02:48:00,mcc,49.18
2022-11-06T02:49:00,mcc,50.69
2022-11-06T02:50:00,mcc,60.99
2022-11-06T02:51:00,mcc,53.76
2022-11-06T02:52:00,mcc,54.08
2022-11-06T02:53:00,mcc,52.95
2022-11-06T02:54:00,mcc,43.13
2022-11-06T02:55:00,mcc,43.53
2022-11-06T02:56:00,mcc,42.22
2022-11-06T02:57:00,mcc,44.33
2022-11-06T02:58:00,mcc,43.62
2022-11-06T02:59:00,mcc,40.47
2022-11-06T03:00:00,mcc,40.57
2022-11-06T03:01:00,mcc,40.84
2022-11-06T03:02:00,mcc,38.50
2022-11-06T03:03:00,mcc,41.18
2022-11-06T03:04:00,mcc,41.15
2022-11-06T03:05:00,mcc,42.56
2022-11-06T03:06:00,mcc,42.71
2022-11-06T03:07:00,mcc,43.50
2022-11-06T03:08:00,mcc,42.37
2022-11-06T03:09:00,mcc,43.41
2022-11-06T03:10:00,mcc,40.76
2022-11-06T03:11:00,mcc,61.10
2022-11-06T03:12:00,mcc,43.77
2022-11-06T03:13:00,mcc,45.50
2022-11-06T03:14:00,mcc,42.35
2022-11-06T03:15:00,mcc,40.86
2022-11-06T03:16:00,mcc,40.72
2022-11-06T03:17:00,mcc,41.40
2022-11-06T03:18:00,mcc,36.84
2022-11-06T03:19:00,mcc,37.35
2022-11-06T03:20:00,mcc,37.28
2022-11-06T03:21:00,mcc,40.96
2022-11-06T03:22:00,mcc,39.72
2022-11-06T03:23:00,mcc,41.08
2022-11-06T03:24:00,mcc,41.68
2022-11-06T03:25:00,mcc,44.15
2022-11-06T03:26:00,mcc,44.55
2022-11-06T03:27:00,mcc,45.59
2022-11-06T03:28:00,mcc,46.41
2022-11-06T03:29:00,mcc,48.33
2022-11-06T03:30:00,mcc,48.77
2022-11-06T03:31:00,mcc,47.46
2022-11-06T03:32:00,mcc,46.20
2022-11-06T03:33:00,mcc,45.62
2022-11-06T03:34:00,mcc,45.88
2022-11-06T03:35:00,mcc,42.79
2022-11-06T03:36:00,mcc,40.84
2022-11-06T03:37:00,mcc,39.03
2022-11-06T03:38:00,mcc,41.94
2022-11-06T03:39:00,mcc,42.04
2022-11-06T03:40:00,mcc,41.90
2022-11-06T03:41:00,mcc,42.32
2022-11-06T03:42:00,mcc,46.16
2022-11-06T03:43:00,mcc,42.07
2022-11-06T03:44:00,mcc,41.54
2022-11-06T03:45:00,mcc,41.83
2022-11-06T03:46:00,mcc,43.91
2022-11-06T03:47:00,mcc,42.30
2022-11-06T03:48:00,mcc,41.62
2022-11-06T03:49:00,mcc,42.07
2022-11-06T03:50:00,mcc,44.91
2022-11-06T03:51:00,mcc,42.43
2022-11-06T03:52:00,mcc,48.13
2022-11-06T03:53:00,mcc,39.77
2022-11-06T03:54:00,mcc,41.78
2022-11-06T03:55:00,mcc,40.56
2022-11-06T03:56:00,mcc,41.46
2022-11-06T03:57:00,mcc,41.53
2022-11-06T03:58:00,mcc,44.34
2022-11-06T03:59:00,mcc,42.11
2022-11-06T04:00:00,mcc,41.45
2022-11-06T04:01:00,mcc,41.36
2022-11-06T04:02:00,mcc,42.92
2022-11-06T04:03:00,mcc,42.60
2022-11-06T04:04:00,mcc,41.43
2022-11-06T04:05:00,mcc,42.82
2022-11-06T04:06:00,mcc,44.66
2022-11-06T04:07:00,mcc,42.64
2022-11-06T04:08:00,mcc,40.75
2022-11-06T04:09:00,mcc,40.05
2022-11-06T04:10:00,mcc,40.91
2022-11-06T04:11:00,mcc,39.13
2022-11-06T04:12:00,mcc,41.69
2022-11-06T04:13:00,mcc,50.92
2022-11-06T04:14:00,mcc,44.28
2022-11-06T04:15:00,mcc,41.75
2022-11-06T04:16:00,mcc,42.60
2022-11-06T04:17:00,mcc,43.34
2022-11-06T04:18:00,mcc,44.73
2022-11-06T04:19:00,mcc,42.22
2022-11-06T04:20:00,mcc,39.08
2022-11-06T04:21:00,mcc,40.90
2022-11-06T04:22:00,mcc,43.02
2022-11-06T04:23:00,mcc,42.35
2022-11-06T04:24:00,mcc,43.34
2022-11-06T04:25:00,mcc,43.49
2022-11-06T04:26:00,mcc,43.14
2022-11-06T04:27:00,mcc,39.80
2022-11-06T04:28:00,mcc,39.82
2022-11-06T04:29:00,mcc,39.81
2022-11-06T04:30:00,mcc,39.84
2022-11-06T04:31:00,mcc,42.16
2022-11-06T04:32:00,mcc,42.89
2022-11-06T04:33:00,mcc,40.76
2022-11-06T04:34:00,mcc,48.90
2022-11-06T04:35:00,mcc,40.28
2022-11-06T04:36:00,mcc,40.51
2022-11-06T04:37:00,mcc,40.51
2022-11-06T04:38:00,mcc,41.21
2022-11-06T04:39:00,mcc,42.05
2022-11-06T04:40:00,mcc,41.11
2022-11-06T04:41:00,mcc,40.63
2022-11-06T04:42:00,mcc,51.06
2022-11-06T04:43:00,mcc,51.42
2022-11-06T04:44:00,mcc,36.66
2022-11-06T04:45:00,mcc,36.31
2022-11-06T04:46:00,mcc,37.99
2022-11-06T04:47:00,mcc,40.85
2022-11-06T04:48:00,mcc,40.33
2022-11-06T04:49:00,mcc,40.17
2022-11-06T04:50:00,mcc,41.48
2022-11-06T04:51:00,mcc,42.80
2022-11-06T04:52:00,mcc,40.74
2022-11-06T04:53:00,mcc,40.85
2022-11-06T04:54:00,mcc,41.67
2022-11-06T04:55:00,mcc,52.04
2022-11-06T04:56:00,mcc,41.13
2022-11-06T04:57:00,mcc,40.45
2022-11-06T04:58:00,mcc,41.94
2022-11-06T04:59:00,mcc,44.87
2022-11-06T05:00:00,mcc,43.31
2022-11-06T05:01:00,mcc,40.96
2022-11-06T05:02:00,mcc,41.02
2022-11-06T05:03:00,mcc,42.01
2022-11-06T05:04:00,mcc,41.81
2022-11-06T05:05:00,mcc,45.01
2022-11-06T05:06:00,mcc,45.50
2022-11-06T05:07:00,mcc,48.74
2022-11-06T05:08:00,mcc,45.74
2022-11-06T05:09:00,mcc,43.98
2022-11-06T05:10:00,mcc,44.06
2022-11-06T05:11:00,mcc,42.54
2022-11-06T05:12:00,mcc,44.41
2022-11-06T05:13:00,mcc,43.85
2022-11-06T05:14:00,mcc,45.17
2022-11-06T05:15:00,mcc,44.83
2022-11-06T05:16:00,mcc,52.51
2022-11-06T05:17:00,mcc,41.77
2022-11-06T05:18:00,mcc,40.50
2022-11-06T05:19:00,mcc,39.74
2022-11-06T05:20:00,mcc,43.42
2022-11-06T05:21:00,mcc,42.79
2022-11-06T05:22:00,mcc,42.21
2022-11-06T05:23:00,mcc,43.13
2022-11-06T05:24:00,mcc,45.18
2022-11-06T05:25:00,mcc,41.80
2022-11-06T05:26:00,mcc,41.77
2022-11-06T05:27:00,mcc,40.96
2022-11-06T05:28:00,mcc,42.59
2022-11-06T05:29:00,mcc,40.69
2022-11-06T05:30:00,mcc,39.45
2022-11-06T05:31:00,mcc,40.01
2022-11-06T05:32:00,mcc,42.83
2022-11-06T05:33:00,mcc,40.15
2022-11-06T05:34:00,mcc,39.76
2022-11-06T05:35:00,mcc,41.20
2022-11-06T05:36:00,mcc,49.23
2022-11-06T05:37:00,mcc,40.52
2022-11-06T05:38:00,mcc,39.81
2022-11-06T05:39:00,mcc,39.93
2022-11-06T05:40:00,mcc,43.15
2022-11-06T05:41:00,mcc,41.09
2022-11-06T05:42:00,mcc,41.94
2022-11-06T05:43:00,mcc,42.13
2022-11-06T05:44:00,mcc,45.14
2022-11-06T05:45:00,mcc,42.74
2022-11-06T05:46:00,mcc,42.33
2022-11-06T05:47:00,mcc,43.15
2022-11-06T05:48:00,mcc,44.12
2022-11-06T05:49:00,mcc,42.03
2022-11-06T05:50:00,mcc,42.01
2022-11-06T05:51:00,mcc,42.31
2022-11-06T05:52:00,mcc,41.23
2022-11-06T05:53:00,mcc,40.48
2022-11-06T05:54:00,mcc,40.25
2022-11-06T05:55:00,mcc,39.26
2022-11-06T05:56:00,mcc,47.57
2022-11-06T05:57:00,mcc,37.09
2022-11-06T05:58:00,mcc,40.16
2022-11-06T05:59:00,mcc,40.86
2022-11-06T06:00:00,mcc,39.36
2022-11-06T06:01:00,mcc,38.67
2022-11-06T06:02:00,mcc,37.90
2022-11-06T06:03:00,mcc,37.62
2022-11-06T06:04:00,mcc,37.71
2022-11-06T06:05:00,mcc,38.67
2022-11-06T06:06:00,mcc,40.22
2022-11-06T06:07:00,mcc,40.23
2022-11-06T06:08:00,mcc,37.93
2022-11-06T06:09:00,mcc,38.33
2022-11-06T06:10:00,mcc,39.21
2022-11-06T06:11:00,mcc,38.51
2022-11-06T06:12:00,mcc,38.71
2022-11-06T06:13:00,mcc,41.76
2022-11-06T06:14:00,mcc,41.80
2022-11-06T06:15:00,mcc,53.70
2022-11-06T06:16:00,mcc,40.75
2022-11-06T06:17:00,mcc,50.16
2022-11-06T06:18:00,mcc,39.37
2022-11-06T06:19:00,mcc,40.92
2022-11-06T06:20:00,mcc,41.85
2022-11-06T06:21:00,mcc,45.88
2022-11-06T06:22:00,mcc,42.26
2022-11-06T06:23:00,mcc,40.98
2022-11-06T06:24:00,mcc,41.38
2022-11-06T06:25:00,mcc,43.32
2022-11-06T06:26:00,mcc,41.94
2022-11-06T06:27:00,mcc,40.60
2022-11-06T06:28:00,mcc,38.94
2022-11-06T06:29:00,mcc,48.11
2022-11-06T06:30:00,mcc,45.58
2022-11-06T06:31:00,mcc,44.76
2022-11-06T06:32:00,mcc,46.27
2022-11-06T06:33:00,mcc,48.43
2022-11-06T06:34:00,mcc,41.08
2022-11-06T06:35:00,mcc,41.47
2022-11-06T06:36:00,mcc,40.02
2022-11-06T06:37:00,mcc,41.05
2022-11-06T06:38:00,mcc,46.18
2022-11-06T06:39:00,mcc,37.02
2022-11-06T06:40:00,mcc,37.62
2022-11-06T06:41:00,mcc,39.06
2022-11-06T06:42:00,mcc,38.12
2022-11-06T06:43:00,mcc,38.18
2022-11-06T06:44:00,mcc,39.32
2022-11-06T06:45:00,mcc,38.90
2022-11-06T06:46:00,mcc,41.26
2022-11-06T06:47:00,mcc,40.82
2022-11-06T06:48:00,mcc,42.38
2022-11-06T06:49:00,mcc,42.57
2022-11-06T06:50:00,mcc,46.38
2022-11-06T06:51:00,mcc,46.16
2022-11-06T06:52:00,mcc,47.45
2022-11-06T06:53:00,mcc,48.62
2022-11-06T06:54:00,mcc,49.20
2022-11-06T06:55:00,mcc,46.56
2022-11-06T06:56:00,mcc,46.80
2022-11-06T06:57:00,mcc,46.54
2022-11-06T06:58:00,mcc,49.20
2022-11-06T06:59:00,mcc,48.72
2022-11-06T07:00:00,mcc,39.62
2022-11-06T07:01:00,mcc,40.68
2022-11-06T07:02:00,mcc,42.22
2022-11-06T07:03:00,mcc,40.43
2022-11-06T07:04:00,mcc,40.55
2022-11-06T07:05:00,mcc,38.48
2022-11-06T07:06:00,mcc,40.84
2022-11-06T07:07:00,mcc,39.65
2022-11-06T07:08:00,mcc,41.52
2022-11-06T07:09:00,mcc,41.32
2022-11-06T07:10:00,mcc,41.94
2022-11-06T07:11:00,mcc,39.57
2022-11-06T07:12:00,mcc,38.58
2022-11-06T07:13:00,mcc,37.90
2022-11-06T07:14:00,mcc,39.79
2022-11-06T07:15:00,mcc,48.97
2022-11-06T07:16:00,mcc,48.82
2022-11-06T07:17:00,mcc,50.10
2022-11-06T07:18:00,mcc,43.04
2022-11-06T07:19:00,mcc,40.23
2022-11-06T07:20:00,mcc,38.45
2022-11-06T07:21:00,mcc,38.26
2022-11-06T07:22:00,mcc,40.27
2022-11-06T07:23:00,mcc,45.47
2022-11-06T07:24:00,mcc,45.02
2022-11-06T07:25:00,mcc,44.33
2022-11-06T07:26:00,mcc,42.86
2022-11-06T07:27:00,mcc,43.07
2022-11-06T07:28:00,mcc,41.35
2022-11-06T07:29:00,mcc,42.31
2022-11-06T07:30:00,mcc,42.89
2022-11-06T07:31:00,mcc,44.28
2022-11-06T07:32:00,mcc,42.81
2022-11-06T07:33:00,mcc,41.27
2022-11-06T07:34:00,mcc,38.50
2022-11-06T07:35:00,mcc,42.40
2022-11-06T07:36:00,mcc,39.93
2022-11-06T07:37:00,mcc,39.50
2022-11-06T07:38:00,mcc,39.19
2022-11-06T07:39:00,mcc,40.91
2022-11-06T07:40:00,mcc,37.92
2022-11-06T07:41:00,mcc,45.60
2022-11-06T07:42:00,mcc,38.39
2022-11-06T07:43:00,mcc,41.67
2022-11-06T07:44:00,mcc,39.46
2022-11-06T07:45:00,mcc,39.34
2022-11-06T07:46:00,mcc,40.30
2022-11-06T07:47:00,mcc,53.82
2022-11-06T07:48:00,mcc,38.71
2022-11-06T07:49:00,mcc,38.73
2022-11-06T07:50:00,mcc,39.89
2022-11-06T07:51:00,mcc,42.79
2022-11-06T07:52:00,mcc,41.31
2022-11-06T07:53:00,mcc,40.58
2022-11-06T07:54:00,mcc,40.04
2022-11-06T07:55:00,mcc,41.47
2022-11-06T07:56:00,mcc,42.51
2022-11-06T07:57:00,mcc,42.68
2022-11-06T07:58:00,mcc,44.74
2022-11-06T07:59:00,mcc,46.68
2022-11-06T08:00:00,mcc,43.96
2022-11-06T08:01:00,mcc,51.69
2022-11-06T08:02:00,mcc,40.29
2022-11-06T08:03:00,mcc,42.07
2022-11-06T08:04:00,mcc,39.48
2022-11-06T08:05:00,mcc,40.87
2022-11-06T08:06:00,mcc,41.41
2022-11-06T08:07:00,mcc,42.41
2022-11-06T08:08:00,mcc,38.23
2022-11-06T08:09:00,mcc,37.32
2022-11-06T08:10:00,mcc,36.95
2022-11-06T08:11:00,mcc,38.46
2022-11-06T08:12:00,mcc,36.88
2022-11-06T08:13:00,mcc,39.18
2022-11-06T08:14:00,mcc,40.32
2022-11-06T08:15:00,mcc,41.95
2022-11-06T08:16:00,mcc,40.43
2022-11-06T08:17:00,mcc,40.82
2022-11-06T08:18:00,mcc,40.83
2022-11-06T08:19:00,mcc,39.12
2022-11-06T08:20:00,mcc,42.03
2022-11-06T08:21:00,mcc,38.10
2022-11-06T08:22:00,mcc,37.72
2022-11-06T08:23:00,mcc,44.41
2022-11-06T08:24:00,mcc,39.35
2022-11-06T08:25:00,mcc,38.75
2022-11-06T08:26:00,mcc,38.49
2022-11-06T08:27:00,mcc,39.40
2022-11-06T08:28:00,mcc,40.59
2022-11-06T08:29:00,mcc,41.29
2022-11-06T08:30:00,mcc,41.60
2022-11-06T08:31:00,mcc,40.52
2022-11-06T08:32:00,mcc,44.60
2022-11-06T08:33:00,mcc,40.29
2022-11-06T08:34:00,mcc,40.98
2022-11-06T08:35:00,mcc,40.20
2022-11-06T08:36:00,mcc,42.65
2022-11-06T08:37:00,mcc,39.56
2022-11-06T08:38:00,mcc,38.73
2022-11-06T08:39:00,mcc,39.80
2022-11-06T08:40:00,mcc,42.48
2022-11-06T08:41:00,mcc,36.44
2022-11-06T08:42:00,mcc,36.69
2022-11-06T08:43:00,mcc,36.61
2022-11-06T08:44:00,mcc,41.23
2022-11-06T08:45:00,mcc,39.37
2022-11-06T08:46:00,mcc,37.98
2022-11-06T08:47:00,mcc,38.71
2022-11-06T08:48:00,mcc,40.15
2022-11-06T08:49:00,mcc,38.84
2022-11-06T08:50:00,mcc,38.31
2022-11-06T08:51:00,mcc,39.83
2022-11-06T08:52:00,mcc,42.23
2022-11-06T08:53:00,mcc,39.64
2022-11-06T08:54:00,mcc,38.05
2022-11-06T08:55:00,mcc,38.14
2022-11-06T08:56:00,mcc,41.37
2022-11-06T08:57:00,mcc,38.68
2022-11-06T08:58:00,mcc,39.74
2022-11-06T08:59:00,mcc,38.97
2022-11-06T09:00:00,mcc,40.97
2022-11-06T09:01:00,mcc,37.83
2022-11-06T09:02:00,mcc,39.33
2022-11-06T09:03:00,mcc,41.17
2022-11-06T09:04:00,mcc,41.27
2022-11-06T09:05:00,mcc,50.56
2022-11-06T09:06:00,mcc,44.61
2022-11-06T09:07:00,mcc,42.13
2022-11-06T09:08:00,mcc,41.82
2022-11-06T09:09:00,mcc,42.26
2022-11-06T09:10:00,mcc,44.03
2022-11-06T09:11:00,mcc,62.23
2022-11-06T09:12:00,mcc,61.74
2022-11-06T09:13:00,mcc,47.24
2022-11-06T09:14:00,mcc,47.46
2022-11-06T09:15:00,mcc,43.74
2022-11-06T09:16:00,mcc,43.94
2022-11-06T09:17:00,mcc,44.51
2022-11-06T09:18:00,mcc,46.49
2022-11-06T09:19:00,mcc,47.29
2022-11-06T09:20:00,mcc,45.73
2022-11-06T09:21:00,mcc,43.28
2022-11-06T09:22:00,mcc,43.74
2022-11-06T09:23:00,mcc,42.10
2022-11-06T09:24:00,mcc,44.22
2022-11-06T09:25:00,mcc,54.05
2022-11-06T09:26:00,mcc,44.71
2022-11-06T09:27:00,mcc,45.39
2022-11-06T09:28:00,mcc,45.82
2022-11-06T09:29:00,mcc,47.81
2022-11-06T09:30:00,mcc,46.65
2022-11-06T09:31:00,mcc,46.96
2022-11-06T09:32:00,mcc,45.00
2022-11-06T09:33:00,mcc,46.29
2022-11-06T09:34:00,mcc,44.70
2022-11-06T09:35:00,mcc,45.13
2022-11-06T09:36:00,mcc,45.69
2022-11-06T09:37:00,mcc,48.92
2022-11-06T09:38:00,mcc,45.46
2022-11-06T09:39:00,mcc,46.11
2022-11-06T09:40:00,mcc,47.75
2022-11-06T09:41:00,mcc,49.19
2022-11-06T09:42:00,mcc,47.52
2022-11-06T09:43:00,mcc,45.82
2022-11-06T09:44:00,mcc,47.47
2022-11-06T09:45:00,mcc,58.37
2022-11-06T09:46:00,mcc,47.46
2022-11-06T09:47:00,mcc,46.24
2022-11-06T09:48:00,mcc,46.21
2022-11-06T09:49:00,mcc,47.00
2022-11-06T09:50:00,mcc,44.38
2022-11-06T09:51:00,mcc,42.47
2022-11-06T09:52:00,mcc,44.18
2022-11-06T09:53:00,mcc,46.26
2022-11-06T09:54:00,mcc,45.34
2022-11-06T09:55:00,mcc,44.71
2022-11-06T09:56:00,mcc,45.81
2022-11-06T09:57:00,mcc,44.55
2022-11-06T09:58:00,mcc,46.44
2022-11-06T09:59:00,mcc,44.67
2022-11-06T10:00:00,mcc,45.08
2022-11-06T10:01:00,mcc,46.50
2022-11-06T10:02:00,mcc,46.34
2022-11-06T10:03:00,mcc,44.61
2022-11-06T10:04:00,mcc,45.30
2022-11-06T10:05:00,mcc,48.91
2022-11-06T10:06:00,mcc,47.38
2022-11-06T10:07:00,mcc,44.99
2022-11-06T10:08:00,mcc,44.55
2022-11-06T10:09:00,mcc,48.04
2022-11-06T10:10:00,mcc,48.88
2022-11-06T10:11:00,mcc,46.54
2022-11-06T10:12:00,mcc,46.73
2022-11-06T10:13:00,mcc,48.39
2022-11-06T10:14:00,mcc,51.85
2022-11-06T10:15:00,mcc,49.08
2022-11-06T10:16:00,mcc,48.86
2022-11-06T10:17:00,mcc,51.05
2022-11-06T10:18:00,mcc,52.79
2022-11-06T10:19:00,mcc,48.49
2022-11-06T10:20:00,mcc,47.01
2022-11-06T10:21:00,mcc,46.54
2022-11-06T10:22:00,mcc,47.30
2022-11-06T10:23:00,mcc,44.41
2022-11-06T10:24:00,mcc,42.25
2022-11-06T10:25:00,mcc,45.41
2022-11-06T10:26:00,mcc,44.60
2022-11-06T10:27:00,mcc,46.86
2022-11-06T10:28:00,mcc,45.80
2022-11-06T10:29:00,mcc,44.53
2022-11-06T10:30:00,mcc,44.82
2022-11-06T10:31:00,mcc,47.00
2022-11-06T10:32:00,mcc,43.98
2022-11-06T10:33:00,mcc,43.76
2022-11-06T10:34:00,mcc,44.63
2022-11-06T10:35:00,mcc,45.86
2022-11-06T10:36:00,mcc,43.14
2022-11-06T10:37:00,mcc,42.88
2022-11-06T10:38:00,mcc,57.23
2022-11-06T10:39:00,mcc,47.27
2022-11-06T10:40:00,mcc,45.87
2022-11-06T10:41:00,mcc,47.04
2022-11-06T10:42:00,mcc,47.23
2022-11-06T10:43:00,mcc,48.98
2022-11-06T10:44:00,mcc,44.36
2022-11-06T10:45:00,mcc,50.85
2022-11-06T10:46:00,mcc,44.77
2022-11-06T10:47:00,mcc,46.96
2022-11-06T10:48:00,mcc,45.95
2022-11-06T10:49:00,mcc,47.14
2022-11-06T10:50:00,mcc,47.69
2022-11-06T10:51:00,mcc,49.01
2022-11-06T10:52:00,mcc,46.90
2022-11-06T10:53:00,mcc,46.26
2022-11-06T10:54:00,mcc,46.03
2022-11-06T10:55:00,mcc,47.16
2022-11-06T10:56:00,mcc,43.44
2022-11-06T10:57:00,mcc,43.26
2022-11-06T10:58:00,mcc,42.68
2022-11-06T10:59:00,mcc,45.29
2022-11-06T11:00:00,mcc,44.62
2022-11-06T11:01:00,mcc,44.72
2022-11-06T11:02:00,mcc,44.27
2022-11-06T11:03:00,mcc,45.57
2022-11-06T11:04:00,mcc,45.53
2022-11-06T11:05:00,mcc,44.60
2022-11-06T11:06:00,mcc,43.93
2022-11-06T11:07:00,mcc,44.62
2022-11-06T11:08:00,mcc,46.13
2022-11-06T11:09:00,mcc,46.09
2022-11-06T11:10:00,mcc,45.24
2022-11-06T11:11:00,mcc,44.99
2022-11-06T11:12:00,mcc,49.34
2022-11-06T11:13:00,mcc,47.38
2022-11-06T11:14:00,mcc,47.83
2022-11-06T11:15:00,mcc,58.84
2022-11-06T11:16:00,mcc,48.54
2022-11-06T11:17:00,mcc,45.30
2022-11-06T11:18:00,mcc,46.79
2022-11-06T11:19:00,mcc,49.91
2022-11-06T11:20:00,mcc,50.90
2022-11-06T11:21:00,mcc,48.38
2022-11-06T11:22:00,mcc,48.44
2022-11-06T11:23:00,mcc,48.09
2022-11-06T11:24:00,mcc,50.44
2022-11-06T11:25:00,mcc,54.40
2022-11-06T11:26:00,mcc,45.69
2022-11-06T11:27:00,mcc,49.31
2022-11-06T11:28:00,mcc,50.77
2022-11-06T11:29:00,mcc,47.94
2022-11-06T11:30:00,mcc,47.88
2022-11-06T11:31:00,mcc,46.41
2022-11-06T11:32:00,mcc,48.22
2022-11-06T11:33:00,mcc,45.59
2022-11-06T11:34:00,mcc,45.36
2022-11-06T11:35:00,mcc,46.10
2022-11-06T11:36:00,mcc,46.38
2022-11-06T11:37:00,mcc,47.72
2022-11-06T11:38:00,mcc,47.06
2022-11-06T11:39:00,mcc,46.13
2022-11-06T11:40:00,mcc,46.49
2022-11-06T11:41:00,mcc,45.88
2022-11-06T11:42:00,mcc,45.29
2022-11-06T11:43:00,mcc,45.76
2022-11-06T11:44:00,mcc,50.48
2022-11-06T11:45:00,mcc,50.75
2022-11-06T11:46:00,mcc,58.11
2022-11-06T11:47:00,mcc,49.42
2022-11-06T11:48:00,mcc,51.33
2022-11-06T11:49:00,mcc,53.69
2022-11-06T11:50:00,mcc,50.88
2022-11-06T11:51:00,mcc,51.16
2022-11-06T11:52:00,mcc,52.49
2022-11-06T11:53:00,mcc,52.60
2022-11-06T11:54:00,mcc,49.40
2022-11-06T11:55:00,mcc,50.93
2022-11-06T11:56:00,mcc,52.50
2022-11-06T11:57:00,mcc,62.89
2022-11-06T11:58:00,mcc,60.88
2022-11-06T11:59:00,mcc,60.34
2022-11-06T12:00:00,mcc,58.91
2022-11-06T12:01:00,mcc,51.11
2022-11-06T12:02:00,mcc,47.86
2022-11-06T12:03:00,mcc,49.05
2022-11-06T12:04:00,mcc,48.54
2022-11-06T12:05:00,mcc,51.13
2022-11-06T12:06:00,mcc,49.63
2022-11-06T12:07:00,mcc,57.64
2022-11-06T12:08:00,mcc,49.00
2022-11-06T12:09:00,mcc,47.86
2022-11-06T12:10:00,mcc,46.89
2022-11-06T12:11:00,mcc,61.72
2022-11-06T12:12:00,mcc,49.82
2022-11-06T12:13:00,mcc,48.56
2022-11-06T12:14:00,mcc,51.12
2022-11-06T12:15:00,mcc,52.60
2022-11-06T12:16:00,mcc,49.88
2022-11-06T12:17:00,mcc,53.58
2022-11-06T12:18:00,mcc,50.57
2022-11-06T12:19:00,mcc,51.10
2022-11-06T12:20:00,mcc,49.67
2022-11-06T12:21:00,mcc,49.41
2022-11-06T12:22:00,mcc,52.88
2022-11-06T12:23:00,mcc,51.45
2022-11-06T12:24:00,mcc,52.82
2022-11-06T12:25:00,mcc,49.50
2022-11-06T12:26:00,mcc,51.64
2022-11-06T12:27:00,mcc,57.60
2022-11-06T12:28:00,mcc,50.37
2022-11-06T12:29:00,mcc,53.04
2022-11-06T12:30:00,mcc,51.58
2022-11-06T12:31:00,mcc,52.05
2022-11-06T12:32:00,mcc,49.27
2022-11-06T12:33:00,mcc,49.12
2022-11-06T12:34:00,mcc,50.26
2022-11-06T12:35:00,mcc,48.44
2022-11-06T12:36:00,mcc,50.38
2022-11-06T12:37:00,mcc,50.64
2022-11-06T12:38:00,mcc,51.15
2022-11-06T12:39:00,mcc,51.99
2022-11-06T12:40:00,mcc,58.64
2022-11-06T12:41:00,mcc,49.85
2022-11-06T12:42:00,mcc,51.39
2022-11-06T12:43:00,mcc,50.72
2022-11-06T12:44:00,mcc,48.93
2022-11-06T12:45:00,mcc,52.88
2022-11-06T12:46:00,mcc,55.39
2022-11-06T12:47:00,mcc,61.11
2022-11-06T12:48:00,mcc,53.40
2022-11-06T12:49:00,mcc,50.80
2022-11-06T12:50:00,mcc,53.44
2022-11-06T12:51:00,mcc,51.88
2022-11-06T12:52:00,mcc,50.34
2022-11-06T12:53:00,mcc,53.99
2022-11-06T12:54:00,mcc,58.29
2022-11-06T12:55:00,mcc,53.94
2022-11-06T12:56:00,mcc,56.02
2022-11-06T12:57:00,mcc,55.95
2022-11-06T12:58:00,mcc,53.21
2022-11-06T12:59:00,mcc,55.28
2022-11-06T13:00:00,mcc,56.89
2022-11-06T13:01:00,mcc,56.86
2022-11-06T13:02:00,mcc,56.03
2022-11-06T13:03:00,mcc,56.65
2022-11-06T13:04:00,mcc,55.07
2022-11-06T13:05:00,mcc,54.60
2022-11-06T13:06:00,mcc,54.09
2022-11-06T13:07:00,mcc,61.60
2022-11-06T13:08:00,mcc,61.22
2022-11-06T13:09:00,mcc,55.79
2022-11-06T13:10:00,mcc,54.33
2022-11-06T13:11:00,mcc,54.10
2022-11-06T13:12:00,mcc,54.22
2022-11-06T13:13:00,mcc,54.00
2022-11-06T13:14:00,mcc,51.73
2022-11-06T13:15:00,mcc,51.35
2022-11-06T13:16:00,mcc,54.83
2022-11-06T13:17:00,mcc,51.03
2022-11-06T13:18:00,mcc,51.60